Flag for U.S.A. Weather past 2 weeks in West Palm Beach, Florida, U.S.A.

Now
73 °F

Partly cloudy.


Feels Like: 75 °F
Forecast: 62 / 78 °F
Wind: 7 mph from Southeast

Location: Palm Beach International Airport

Current Time: Dec 19, 2014 at 7:13:35 PM

Latest Report: Dec 19, 2014 at 6:53 PM


Visibility: 10 mi

Pressure: 30.05 "Hg

Humidity: 69%

Dew point: 62 °F

Location of West Palm BeachLocation

Historic Weather in West Palm Beach — Graph

°F

West Palm Beach temperature yesterday

Maximum temperature yesterday: 76 °F (at 12:53 PM)
Minimum temperature yesterday: 57 °F (at 6:55 AM)
Average temperature yesterday: 66 °F

Past Weeks' High & Low Weather Summary

 TemperatureHumidityPressure
High81 °F (Dec 5, 10:53 AM)100% (Dec 8, 6:59 AM)30.24 "Hg (Dec 8, 6:59 AM)
Low47 °F (Dec 11, 6:53 AM)31% (Dec 12, 2:53 PM)29.95 "Hg (Dec 9, 2:53 PM)
Average65 °F70%30.10 "Hg
* Reported Dec 4 5:53 PM — Dec 19 5:53 PM, West Palm Beach, Weather by CustomWeather, © 2014

Note: Actual official high and low records may vary slightly from our data, if they occured in-between our weather recording intervals... More about our weather records

Advertising

West Palm Beach weather history for previous 24 hours

 ConditionsComfort  
Time TempWeatherWind HumidityBarometerVisibility
5:53 PM
Dec 19
74 °FPartly cloudy.9 mph67%30.03 "Hg10 mi
4:53 PM75 °FBroken clouds.8 mph64%30.02 "Hg10 mi
3:53 PM75 °FBroken clouds.8 mph64%30.03 "Hg10 mi
2:53 PM77 °FScattered clouds.10 mph58%30.02 "Hg10 mi
1:53 PM76 °FPartly sunny.7 mph58%30.03 "Hg10 mi
12:53 PM78 °FPartly sunny.3 mph50%30.06 "Hg10 mi
11:53 AM77 °FScattered clouds.3 mph54%30.09 "Hg10 mi
10:53 AM74 °FPassing clouds.No wind57%30.11 "Hg10 mi
9:53 AM72 °FPassing clouds.No wind55%30.11 "Hg10 mi
8:53 AM67 °FScattered clouds.No wind61%30.10 "Hg10 mi
7:53 AM59 °FScattered clouds.No wind78%30.09 "Hg10 mi
6:53 AM56 °FPassing clouds.3 mph84%30.08 "Hg10 mi
5:53 AM58 °FPassing clouds.No wind78%30.06 "Hg10 mi
4:53 AM56 °FPassing clouds.3 mph84%30.07 "Hg10 mi
3:53 AM56 °FPassing clouds.6 mph87%30.07 "Hg10 mi
2:53 AM57 °FOvercast.No wind87%30.07 "Hg10 mi
1:53 AM56 °FPassing clouds.3 mph90%30.07 "Hg10 mi
12:53 AM57 °FPassing clouds.No wind87%30.09 "Hg10 mi
11:53 PM
Dec 18
60 °FPassing clouds.3 mph78%30.08 "Hg10 mi
10:53 PM60 °FPassing clouds.No wind75%30.10 "Hg10 mi
9:53 PM61 °FPassing clouds.No wind75%30.11 "Hg10 mi
8:53 PM64 °FPassing clouds.No wind70%30.10 "Hg10 mi
7:53 PM65 °FPassing clouds.3 mph70%30.10 "Hg10 mi
Weather by CustomWeather, © 2014

See weather overviewHow to use our weather pages